ROMMA est une association bénévole à but non lucratif. Votre soutien est indispensable : ADHERER à ROMMA ou FAIRE un DON

Saint-Léger-les-Mélèzes - (05, Hautes-Alpes)

Champsaur (1245 m)   Longitude: 6° 11' 42" E    Latitude: 44° 38' 38" N Station partenaire n°51
 

Détail journalier du     <<     >>

Température Precipitation Humidité Vent Dir Rafale Dir. rafale Ensol.
Heure (°C) (mm) (%) (km/h) (km/h) (min)
01:00 10.60892ESE16S0
02:00 11.60852SSO15SSE0
03:00 12.40793S16OSO0
04:00 10.80861SSO8S0
05:00 10.80852S13S0
06:00 11.50812S13S0
07:00 10.30871ONO10SSO0
08:00 10.90841S15S0
09:00 11.00851S11S0
10:00 11.40851SSO8SSO0
11:00 12.80752ONO11ONO0
12:00 13.90722SSO11O0
13:00 14.50623ONO18OSO10
14:00 16.10505ONO21NO50
15:00 15.30568ONO27NNO40
16:00 15.60567ONO23O60
17:00 15.00567ONO27ONO60
18:00 14.30627ONO27NNO0
19:00 12.60667ONO23ONO0
20:00 12.00683ONO18SO0
21:00 11.30723SSO15ONO0
22:00 11.10733S11S0
23:00 10.80753SSO13OSO0
minuit 11.10753SSO11S0

Graphique du 25-09-2019

 

Serveur OMMA